Location: Arawhata Stream
(41.2517°S, 175.9536°E)
Time: 15:14:04
(UTC+00:00)

Daily predictions for brighter satellites

Satellite Brightness Start Highest point End
(mag) Time Altitude Azimuth Time Altitude Azimuth Time Altitude Azimuth
USA 59 Rocket 3.0 14:55:01 43° ESE 14:55:01 43° ESE 15:01:50 10° SE
NOSS 3-2 (C) 4.5 16:11:19 36° ENE 16:11:19 36° ENE 16:14:32 10° NE
Cosmos 2263 Rocket 3.7 16:25:28 28° NNE 16:25:28 28° NNE 16:28:00 10° NNE
SL-16 R/B 3.4 16:24:16 22° NNE 16:27:18 38° ENE 16:32:34 10° SE
Nadezhda 3 Rocket 4.3 16:23:31 10° N 16:29:41 65° E 16:35:52 10° SSE
USA 59 Rocket 2.3 16:41:38 48° SW 16:42:17 48° SW 16:52:33 10° SSE
ATLAS 5 CENTAUR R/B 4.3 16:41:58 19° SSE 16:43:47 24° SE 16:51:30 10° ENE
Cosmos 1844 Rocket 4.2 16:48:55 16° S 16:52:53 33° ESE 16:57:59 10° ENE
Cosmos 2360 Rocket 4.0 16:48:05 10° NNE 16:52:55 30° ENE 16:57:46 10° SE
Cosmos 1461 4.4 16:53:28 32° SE 16:53:58 33° SE 16:57:54 10° ENE
USA 234 3.7 16:58:05 10° SE 17:04:38 61° NE 17:10:19 14° NNW
Cosmos 2278 3.5 17:06:54 62° WNW 17:07:46 74° WSW 17:13:30 10° SSE
USA 238 DEB 3.5 17:07:27 36° SSW 17:10:21 79° SE 17:16:31 10° NE
USA 238 3.5 17:07:29 35° SSW 17:10:25 79° SE 17:16:35 10° NE
Cosmos 1437 Rocket 3.8 17:15:38 36° N 17:15:38 36° N 17:17:59 10° N
SMAP 4.1 17:12:04 10° NE 17:16:31 45° ESE 17:21:01 10° S
Cosmos 2333 Rocket 3.5 17:11:39 10° N 17:17:03 42° ENE 17:22:29 10° SE
Cosmos 1937 Rocket 4.4 17:22:38 32° NW 17:22:38 32° NW 17:25:56 10° N
ISS -3.0 17:22:59 49° SE 17:22:59 49° SE 17:25:34 10° SE
Spot 4 Rocket 3.9 17:19:06 10° NNE 17:24:15 82° WNW 17:28:29 16° SSW
USA 276 3.5 17:26:23 31° SE 17:26:23 31° SE 17:28:13 10° SE
SL-16 R/B 4.1 17:20:18 10° S 17:22:12 18° SSW 17:22:12 18° SSW
SJ-11-01 4.4 17:21:16 10° N 17:25:29 51° WNW 17:25:29 51° WNW
USA 305 2.4 17:28:19 82° W 17:28:27 86° SW 17:32:25 10° SE
Cosmos 2322 Rocket 2.3 17:22:47 10° NNW 17:28:30 79° ENE 17:34:17 10° SSE
Cosmos 1934 Rocket 3.8 17:24:14 10° S 17:30:22 78° W 17:36:26 10° N
Helios 1B rocket 4.3 17:28:39 10° NE 17:32:01 28° ESE 17:35:25 10° S
BREEZE-M DEB (TANK) 4.2 17:33:26 12° N 17:35:31 28° NE 17:40:14 10° ESE
Cosmos 1980 Rocket 4.1 17:46:46 12° SSW 17:46:46 12° SSW 17:47:51 10° SSW
NOSS 3-4 (A) 4.2 17:38:30 11° NW 17:46:45 58° SW 17:54:47 10° SSE
NOSS 3-4 (C) 4.2 17:38:23 11° NW 17:46:47 59° SW 17:54:50 10° SSE
Lacrosse 5 4.0 17:48:46 11° SSW 17:50:49 14° S 17:53:22 10° SE
Cosmos 2228 4.5 17:52:27 10° NNE 17:56:31 40° E 18:00:36 10° SSE
Cosmos 2058 2.8 17:52:32 10° S 17:56:42 87° E 18:00:47 10° N
NOSS 3-2 (C) 4.3 17:58:48 22° W 17:59:27 22° WNW 18:03:26 10° NNW
Cosmos 1125 Rocket 4.0 17:56:06 10° SSW 18:01:19 62° ESE 18:06:28 10° NNE
Cosmos 1544 Rocket 3.9 17:57:47 10° N 18:02:13 69° E 18:06:42 10° SSE
Cosmos 1605 Rocket 4.0 17:56:03 10° S 18:02:27 74° W 18:08:50 10° N
Cosmos 2263 Rocket 4.1 18:07:14 11° WNW 18:07:14 11° WNW 18:07:39 10° WNW
USA 307 2.7 18:04:20 24° WNW 18:06:25 55° SW 18:10:20 10° SE
AQUARIUS 4.1 18:02:44 10° N 18:07:13 74° W 18:11:45 10° SSW
SL-16 R/B 2.9 18:06:23 10° WNW 18:11:26 32° WSW 18:16:31 10° S
Cosmos 2333 4.2 18:09:58 10° NNW 18:15:47 82° WSW 18:21:38 10° SSE
Centaur D-1A AC-31 3.6 18:23:50 10° NNW 18:26:36 18° NNE 18:31:16 10° ENE
Cosmos 1844 3.9 18:21:20 10° SSW 18:26:45 51° WNW 18:32:08 10° N
SWARM A 4.3 18:24:31 10° S 18:28:09 77° W 18:31:44 10° N
COSMOS 2428 4.1 18:23:03 10° N 18:28:25 43° ENE 18:33:52 10° SE
ATLAS 5 CENTAUR R/B 3.5 18:23:27 10° SSW 18:28:40 31° SE 18:32:58 10° ENE
Cosmos 2219 Rocket 2.2 18:23:40 10° NNW 18:29:22 86° WSW 18:35:08 10° SSE
YAOGAN 1 4.1 18:25:36 10° NE 18:29:35 37° ESE 18:33:38 10° S
SAR-Lupe-2 3.7 18:28:15 10° NNE 18:31:51 81° ESE 18:35:32 10° S
Cosmos 1461 4.1 18:29:03 13° WSW 18:32:04 27° WNW 18:35:43 10° N
Cosmos 1455 Rocket 4.3 18:29:50 10° WNW 18:33:14 21° WSW 18:36:40 10° SSW
ADEOS Rocket 3.6 18:26:16 10° NNE 18:33:20 70° ESE 18:39:43 10° S
Cosmos 2208 Rocket 4.0 18:29:03 10° NNW 18:34:10 61° WSW 18:39:24 10° SSE
Cosmos 1570 Rocket 4.3 18:29:15 10° NW 18:34:23 46° WSW 18:39:36 10° S
Cosmos 1602 Rocket 3.9 18:30:52 10° S 18:35:15 71° E 18:39:35 10° NNE
USA 59 Rocket 3.3 18:28:14 12° WSW 18:35:37 24° SSW 18:43:29 10° SSE
Cosmos 2360 Rocket 2.6 18:31:25 10° NW 18:36:43 40° WSW 18:42:03 10° S
Cosmos 1844 Rocket 3.3 18:31:32 10° SW 18:36:45 37° WNW 18:41:55 10° N
CZ-4 R/B 4.4 18:32:43 10° N 18:36:49 81° W 18:40:58 10° SSW
Cosmos 2150 Rocket 4.3 18:32:37 10° SSW 18:37:58 73° ESE 18:43:10 10° NNE
Cosmos 1544 2.8 18:37:36 10° SSW 18:40:19 41° W 18:42:59 10° NNW
Meteor 1-31 Rocket 3.2 18:38:19 10° NNW 18:41:48 38° W 18:45:21 10° SSW
ATLAS CENTAUR R/B 2.1 18:41:00 13° WSW 18:41:54 15° SW 18:43:13 10° S
Cosmos 1758 Rocket 3.5 18:37:47 10° S 18:42:14 83° W 18:46:39 10° N
Cosmos 1869 3.8 18:41:07 10° NW 18:44:33 34° WSW 18:48:03 10° S
USA 234 3.6 18:41:14 10° SE 18:47:28 46° SSW 18:53:42 10° W
CZ-4 R/B 3.9 18:45:44 10° ENE 18:48:48 21° ESE 18:51:53 10° SSE
RESURS DK-1 2.7 18:47:08 10° NW 18:51:04 44° WSW 18:55:03 10° SSE
COSMO-SKYMED 1 2.8 18:47:47 10° S 18:52:04 51° WSW 18:56:19 10° NNW
Cosmos 1666 4.0 18:50:25 10° S 18:53:46 39° ESE 18:57:04 10° NNE
Cosmos 1867 4.4 18:49:41 10° SW 18:54:27 32° WNW 18:59:12 10° N
